GW0416 Weather Reports


time (UTC)temp
F
wind
direction
speed
knots
gust
knots
rain 1hr
in
rain 24hr
in
rain mn
in
humidity
%
barometer
mb
20260902213036 82 172 9.6 22.6 0.00 0.00 0.00 31 1003.5
20260902211536 82 148 7.0 16.5 0.00 0.00 0.00 32 1003.7
20260902210036 80 167 8.7 16.5 0.00 0.00 0.00 32 1004.2
20260902204543 80 146 10.4 15.6 0.00 0.00 0.00 32 1004.8
20260902203036 78 149 8.7 17.4 0.00 0.00 0.00 34 1005.0
20260902201540 78 151 11.3 18.2 0.00 0.00 0.00 34 1005.3
20260902200037 77 179 9.6 17.4 0.00 0.00 0.00 37 1005.4
20260902194549 77 190 7.8 13.9 0.00 0.00 0.00 38 1005.4
20260902193037 76 158 8.7 13.0 0.00 0.00 0.00 38 1005.5
20260902191546 76 209 8.7 16.5 0.00 0.00 0.00 38 1005.7
20260902190036 76 160 10.4 17.4 0.00 0.00 0.00 37 1006.0
20260902184535 75 192 9.6 17.4 0.00 0.00 0.00 40 1006.1
20260902183045 75 166 11.3 17.4 0.00 0.00 0.00 40 1006.4
20260902181533 75 215 7.8 18.2 0.00 0.00 0.00 41 1006.4
20260902180037 74 175 11.3 18.2 0.00 0.00 0.00 43 1006.6
20260902174535 73 190 9.6 17.4 0.00 0.00 0.00 43 1006.8
20260902173050 73 193 12.2 18.2 0.00 0.00 0.00 44 1006.9
20260902171534 73 214 10.4 16.5 0.00 0.00 0.00 43 1006.9
20260902170038 72 175 8.7 13.9 0.00 0.00 0.00 46 1006.9
20260902164541 71 194 11.3 16.5 0.00 0.00 0.00 46 1006.9
20260902163034 71 229 10.4 15.6 0.00 0.00 0.00 47 1006.8
20260902161536 70 214 8.7 13.0 0.00 0.00 0.00 48 1006.8
20260902160042 68 228 7.0 13.9 0.00 0.00 0.00 50 1007.1
20260902154547 69 238 10.4 15.6 0.00 0.00 0.00 49 1007.3
20260902153037 69 236 12.2 18.2 0.00 0.00 0.00 50 1007.3
20260902151538 66 236 9.6 12.2 0.00 0.00 0.00 53 1007.6
20260902150038 65 259 4.3 8.7 0.00 0.00 0.00 53 1007.6
20260902144534 64 230 5.2 10.4 0.00 0.00 0.00 53 1007.9
20260902143037 62 248 1.7 3.5 0.00 0.00 0.00 56 1008.0
20260902141538 61 249 1.7 3.5 0.00 0.00 0.00 57 1008.1
20260902140039 60 230 2.6 5.2 0.00 0.00 0.00 58 1008.1
20260902134536 58 240 1.7 4.3 0.00 0.00 0.00 62 1007.9
20260902133038 57 239 3.5 6.1 0.00 0.00 0.00 63 1007.8
20260902131542 57 200 5.2 7.8 0.00 0.00 0.00 62 1007.8
20260902130049 56 217 3.5 8.7 0.00 0.00 0.00 65 1007.6
20260902124535 57 224 4.3 7.0 0.00 0.00 0.00 62 1007.6
20260902123035 55 305 2.6 7.0 0.00 0.00 0.00 66 1007.1
20260902121539 56 325 3.5 7.0 0.00 0.00 0.00 65 1007.3
20260902120034 56 304 5.2 7.8 0.00 0.00 0.00 66 1007.5
20260902114534 54 295 5.2 8.7 0.00 0.00 0.00 71 1007.8
20260902113035 55 280 7.0 11.3 0.00 0.00 0.00 69 1007.9
20260902111534 56 257 8.7 13.9 0.00 0.00 0.00 67 1008.0
20260902110042 56 238 8.7 13.9 0.00 0.00 0.00 67 1008.1
20260902104539 53 207 8.7 11.3 0.00 0.00 0.00 69 1008.0
20260902103038 54 205 6.1 8.7 0.00 0.00 0.00 65 1007.8
20260902101536 55 175 4.3 7.0 0.00 0.00 0.00 61 1008.0
20260902100035 56 156 3.5 6.1 0.00 0.00 0.00 61 1008.2
20260902094535 55 121 4.3 7.0 0.00 0.00 0.00 62 1008.2
20260902093040 58 130 0.0 4.3 0.00 0.00 0.00 56 1007.8
20260902091536 59 174 2.6 4.3 0.00 0.00 0.00 56 1008.2
20260902090037 57 127 1.7 3.5 0.00 0.00 0.00 59 1008.5
20260902084536 56 97 2.6 6.1 0.00 0.00 0.00 60 1008.6
20260902083039 58 92 4.3 6.1 0.00 0.00 0.00 57 1008.6
20260902081542 61 141 4.3 7.0 0.00 0.00 0.00 52 1008.7
20260902080047 61 139 3.5 7.8 0.00 0.00 0.00 52 1008.6
20260902074536 60 148 3.5 7.0 0.00 0.00 0.00 53 1008.6
20260902073037 61 128 4.3 6.1 0.00 0.00 0.00 51 1008.4
20260902071540 62 137 5.2 8.7 0.00 0.00 0.00 51 1008.5
20260902070034 61 153 3.5 7.0 0.00 0.00 0.00 51 1008.6
20260902064535 62 134 5.2 6.1 0.00 0.00 0.00 50 1008.7
20260902063037 63 135 3.5 7.0 0.00 0.00 0.00 48 1008.7
20260902061536 64 119 3.5 5.2 0.00 0.00 0.00 47 1008.9
20260902060038 64 143 2.6 4.3 0.00 0.00 0.00 47 1009.0
20260902054538 65 141 3.5 7.8 0.00 0.00 0.00 47 1009.0
20260902053038 64 155 4.3 7.8 0.00 0.00 0.00 47 1009.0
20260902051535 65 136 7.0 8.7 0.00 0.00 0.00 47 1009.0
20260902050036 64 134 6.1 9.6 0.00 0.00 0.00 47 1009.0
20260902044535 64 157 6.1 9.6 0.00 0.00 0.00 47 1009.1
20260902043042 66 146 5.2 9.6 0.00 0.00 0.00 46 1009.0
20260902041534 67 155 6.1 8.7 0.00 0.00 0.00 44 1009.1
20260902040038 68 135 7.0 9.6 0.00 0.00 0.00 43 1009.2
20260902034541 68 152 7.0 9.6 0.00 0.00 0.00 42 1009.3
20260902033038 68 146 7.0 8.7 0.00 0.00 0.00 40 1009.3
20260902031537 68 146 5.2 8.7 0.00 0.00 0.00 40 1009.4
20260902030045 69 157 4.3 7.8 0.00 0.00 0.00 38 1009.3
20260902024534 69 136 6.1 8.7 0.00 0.00 0.00 38 1009.2
20260902023042 70 147 6.1 8.7 0.00 0.00 0.00 38 1009.3
20260902021543 72 126 5.2 7.0 0.00 0.00 0.00 34 1009.1
20260902020037 74 131 6.1 7.8 0.00 0.00 0.00 32 1009.1
20260902014537 76 136 6.1 7.8 0.00 0.00 0.00 30 1009.1
20260902013034 78 132 6.1 8.7 0.00 0.00 0.00 28 1009.1
20260902011536 79 132 7.0 11.3 0.00 0.00 0.00 27 1009.0
20260902010034 81 161 7.0 11.3 0.00 0.00 0.00 24 1009.0
20260902004539 81 142 7.0 9.6 0.00 0.00 0.00 25 1009.1
20260902003037 81 128 6.1 10.4 0.00 0.00 0.00 25 1009.1
20260902001534 81 144 7.0 12.2 0.00 0.00 0.00 25 1009.3
20260902000037 81 129 9.6 13.9 0.00 0.00 0.00 25 1009.5
20260901234537 81 129 11.3 14.8 0.00 0.00 0.00 26 1009.4
20260901233036 81 153 9.6 13.9 0.00 0.00 0.00 26 1009.6
20260901231535 81 165 8.7 16.5 0.00 0.00 0.00 26 1009.8
20260901230039 81 165 9.6 19.1 0.00 0.00 0.00 26 1009.8
20260901224534 81 169 7.0 14.8 0.00 0.00 0.00 26 1010.0
20260901223038 82 172 8.7 16.5 0.00 0.00 0.00 26 1010.0
20260901221534 81 161 9.6 19.1 0.00 0.00 0.00 26 1010.3
20260901214533 80 179 8.7 15.6 0.00 0.00 0.00 26 1010.5
20260901213101 81 161 6.1 16.5 0.00 0.00 0.00 26 1010.7